Terminal Aerodrome Forecast
Issued by NWS Atlanta, GA

Home | Current Version | Previous Version | Text Only | Print | Product List | Glossary On
Versions: 1 2 3 4 5 6 7 8 9 10 11 12 13 14 15 16 17 18 19 20 21 22 23 24 25 26 27 28 29 30 31 32 33 34 35
000
FTAK31 PAJN 230500
TAFAHN
TAF
PAHN 230523Z 2306/2406 09009KT P6SM VCSH SCT015 BKN025 OVC060
      TEMPO 2306/2308 BKN015 OVC030
     FM231200 30005KT P6SM BKN025 BKN080
     FM231500 30008KT P6SM SCT025 SCT080
     FM240200 29012KT P6SM SCT100
      AMD LTD TO CLD VIS AND WIND=

USA.gov is the U.S. government's official web portal to all federal, state and local government web resources and services.